[[{"header":{"parameterUnit":"m.s-1","parameterCategory":1,"la1":30.2991,"la2":30.254,"lo1":-89.0895,"lo2":-89.0444,"dy":0.0017,"dx":0.0017,"nx":28,"ny":28,"refTime":"2025-09-07T21:00:00:Z","depth":0,"parameterNumber":2,"parameterNumberName":"U-component_of_WINDS"},"data":[0,0,0,0,0,0,0,0,0,0,0,0,0,0,0,0,0,0,0,0,0,0,0,0,0,0,0,0,0,0,0,0,0,0,0,0,0,0,0,0,0,0,0,0,0,0,0,0,0,0,0,0,0,0,0,0,0,0,-2.9625,-2.9626,0,-2.9674,-2.9674,-2.9675,-2.9583,-2.958,-2.9577,-2.9574,-2.9624,-2.9628,-2.9632,0,0,0,0,0,0,0,0,0,0,0,0,0,-2.9453,-2.9456,-2.9625,-2.9626,-2.9627,-2.9674,-2.9674,-2.9675,-2.9584,-2.958,-2.9576,-2.9573,-2.9623,-2.9628,-2.9633,0,0,0,0,0,0,0,0,0,0,0,0,0,-2.9517,-2.9458,-2.9625,-2.9587,-2.9584,-2.9674,-2.9674,-2.9675,-2.9584,-2.958,-2.9575,-2.9571,-2.9621,-2.9627,-2.9633,-2.9763,0,0,-2.9652,-2.9655,0,0,0,0,0,0,0,0,-2.9514,-2.9524,-2.9592,-2.959,-2.9586,-2.9618,-2.9632,-2.9705,-2.9586,-2.9584,-2.9574,-2.9569,-2.9626,-2.9631,-2.965,-2.9765,-2.9767,-2.9653,-2.9657,-2.9659,-2.9661,0,0,0,0,0,0,0,-2.9509,-2.9521,-2.9644,-2.9593,-2.959,-2.9567,-2.9571,-2.9645,-2.963,-2.9584,-2.9577,-2.9584,-2.9623,-2.9645,-2.9651,-2.9768,-2.9653,-2.9658,-2.9662,-2.9665,-2.9991,-2.9996,0,0,0,0,0,0,-2.951,-2.9518,-2.9643,-2.9646,-2.9538,-2.9573,-2.9578,-2.9612,-2.9629,-2.9627,-2.9588,-2.958,-2.9636,-2.9644,-2.9652,-2.9806,-2.9659,-2.9665,-2.9669,-2.9986,-2.9992,-2.9998,0,0,0,0,0,0,-2.9506,-2.9522,-2.9641,-2.958,-2.9594,-2.9581,-2.9621,-2.9616,-2.9637,-2.9632,-2.9629,-2.9613,-2.9633,-2.9643,-2.9736,-2.9806,-2.9668,-2.9674,-2.9981,-2.9988,-2.9995,-3.0114,0,0,0,0,0,0,-2.9502,-2.9521,-2.9571,-2.9582,-2.9597,-2.9725,-2.9625,-2.962,-2.9648,-2.9637,-2.9654,-2.9653,-2.963,-2.9727,-2.9742,-2.9812,-2.9679,-2.9974,-2.9984,-2.9993,-3.0104,-3.0124,-3.0142,0,0,0,0,0,-2.9496,-2.9602,-2.9574,-2.959,-2.9659,-2.9729,-2.9738,-2.971,-2.9654,-2.9704,-2.97,-2.9652,-2.9795,-2.9738,-2.9754,-2.9827,-2.997,-2.9981,-2.9992,-3.0095,-3.012,-3.0142,0,0,0,0,0,0,-2.96,-2.9603,-2.9572,-2.9685,-2.9708,-2.9714,-2.9776,-2.9737,-2.9776,-2.9765,-2.9728,-2.9732,-2.9832,-2.9838,-2.9774,-2.9952,-2.9873,-2.9888,-2.9946,-2.997,-2.9989,-2.9986,-2.9684,0,0,0,0,0,-2.9636,-2.9693,-2.9692,-2.9792,-2.9805,-2.9789,-2.9818,-2.9794,-2.9816,-2.9825,-2.9828,-2.9852,-2.9901,-2.9935,-2.9981,-3.0103,-3.0105,-3.0161,-3.018,-3.0196,-3.021,-3.0274,-3.0299,-3.0034,-3.0034,-3.0034,0,0,-2.9712,-2.972,-2.9759,-2.9814,-2.9828,-2.9888,-2.9797,-2.9864,-2.9908,-2.9835,-2.9923,-2.9926,-2.9949,-3.0057,-3.0105,-3.0065,-3.0283,-3.021,-3.0222,-3.0228,-3.0289,-3.0314,-3.0336,-3.0042,-3.004,-3.0039,0,0,-2.9881,-2.9892,-2.9977,-2.9993,-3.0016,-3.0004,-3.0024,-3.0036,-3.0035,-3.0123,-3.0069,-3.012,-3.0207,-3.0226,-3.0247,-3.042,-3.0378,-3.0435,-3.0537,-3.0601,-3.0622,-3.064,-3.0703,-3.0726,-3.0449,-3.0449,-3.0449,0,-2.9972,-3.006,-3.0025,-3.0096,-3.0122,-3.0057,-3.0143,-3.016,-3.0197,-3.0216,-3.017,-3.0278,-3.0289,-3.04,-3.0442,-3.0461,-3.0483,-3.0435,-3.0621,-3.0639,-3.0656,-3.0716,-3.0739,-3.0456,-3.0455,-3.0455,-3.0454,0,-3.0171,-3.0233,-3.0298,-3.0336,-3.0368,-3.0446,-3.0423,-3.046,-3.0432,-3.0425,-3.0514,-3.0524,-3.0571,-3.0595,-3.0569,-3.0703,-3.0678,-3.0627,-3.0547,-3.0689,-3.0744,-3.0767,-3.0466,-3.0464,-3.0462,-3.046,0,0,-3.041,-3.0426,-3.0451,-3.0467,-3.0486,-3.0533,-3.0607,-3.0652,-3.0685,-3.0712,-3.0773,-3.0847,-3.0801,-3.0824,-3.0799,-3.0855,-3.0992,-3.0797,-3.0797,-3.0835,-3.1141,-3.1181,-3.1208,-3.0963,-3.0967,-3.097,-3.114,0,-3.0578,-3.0707,-3.0677,-3.0804,-3.0861,-3.0799,-3.0863,-3.0882,-3.0876,-3.0923,-3.0916,-3.097,-3.0903,-3.0917,-3.0969,-3.0965,-3.1054,-3.0951,-3.1021,-3.1024,-3.102,-3.1236,-3.1279,-3.1438,-3.1161,-3.1165,-3.1167,0,-3.0793,-3.0828,-3.0961,-3.097,-3.0993,-3.1052,-3.109,-3.1135,-3.1155,-3.1146,-3.1172,-3.1136,-3.1208,-3.1126,-3.1225,-3.1157,-3.1182,-3.1184,-3.119,-3.1197,-3.1106,-3.1252,-3.1488,-3.1513,-3.1201,-3.1198,-3.1196,0,-3.0956,-3.1036,-3.1125,-3.114,-3.1154,-3.1196,-3.1204,-3.1218,-3.1247,-3.1281,-3.1299,-3.134,-3.1363,-3.1396,-3.1371,-3.1313,-3.1476,-3.139,-3.1471,-3.1472,-3.1511,-3.1509,-3.1757,-3.1524,-3.1524,-3.1523,-3.1523,0,-3.1149,-3.1233,-3.1199,-3.1254,-3.1346,-3.131,-3.1402,-3.1402,-3.1415,-3.1469,-3.1417,-3.1469,-3.1432,-3.148,-3.1461,-3.1547,-3.1557,-3.1553,-3.1547,-3.1559,-3.156,-3.1578,-3.1567,-3.153,-3.1528,-3.1527,-3.1526,0,-3.1348,-3.1328,-3.1422,-3.1426,-3.1429,-3.1497,-3.15,-3.1551,-3.154,-3.1609,-3.1623,-3.1607,-3.1661,-3.1638,-3.1696,-3.1682,-3.1793,-3.1772,-3.1787,-3.1783,-3.1866,-3.1859,-3.2136,-3.217,-3.1913,-3.1915,-3.1917,0,-3.1474,-3.1537,-3.1547,-3.158,-3.1591,-3.1643,-3.1672,-3.1638,-3.167,-3.1696,-3.1745,-3.1794,-3.1832,-3.1921,-3.1914,-3.1957,-3.1938,-3.2031,-3.1944,-3.1954,-3.1941,-3.1939,-3.1945,-3.205,-3.2053,-3.2055,-3.2057,0,-3.1699,-3.1686,-3.173,-3.177,-3.1806,-3.1836,-3.1862,-3.1891,-3.1858,-3.1897,-3.1951,-3.1981,-3.2038,-3.2088,-3.2126,-3.2133,-3.2091,-3.2084,-3.2106,-3.212,-3.2127,-3.2126,-3.1838,-3.2079,-3.2077,-3.2075,-3.2074,-3.2073,-3.1867,-3.192,-3.1936,-3.1986,-3.2001,-3.2026,-3.2074,-3.2069,-3.2114,-3.2158,-3.2135,-3.2199,-3.2214,-3.2261,-3.2273,-3.2322,-3.2286,-3.2316,-3.2324,-3.2333,-3.2345,-3.2117,-3.2329,-3.2328,-3.2327,-3.2327,-3.2326,0,-3.2091,-3.2098,-3.2144,-3.2181,-3.2221,-3.2175,-3.2201,-3.2237,-3.2294,-3.2312,-3.235,-3.2413,-3.246,-3.2456,-3.2499,-3.2539,-3.2521,-3.2552,-3.255,-3.2553,-3.2374,-3.2353,-3.2566,-3.2566,-3.2566,-3.2566,-3.2566,-3.2566,-3.2213,-3.2301,-3.2289,-3.2383,-3.2388,-3.2451,-3.2469,-3.2492,-3.2506,-3.2578,-3.2617,-3.2614,-3.2623,-3.2667,-3.2708,-3.2705,-3.2725,-3.2764,-3.2754,-3.2589,-3.2565,-3.2543,-3.2522,-3.2768,-3.2768,-3.2928,-3.293,-3.2931]},{"header":{"parameterUnit":"m.s-1","parameterCategory":1,"la1":30.2991,"la2":30.254,"lo1":-89.0895,"lo2":-89.0444,"dy":0.0017,"dx":0.0017,"nx":28,"ny":28,"refTime":"2025-09-07T21:00:00:Z","depth":0,"parameterNumber":3,"parameterNumberName":"V-component_of_WINDS"},"data":[0,0,0,0,0,0,0,0,0,0,0,0,0,0,0,0,0,0,0,0,0,0,0,0,0,0,0,0,0,0,0,0,0,0,0,0,0,0,0,0,0,0,0,0,0,0,0,0,0,0,0,0,0,0,0,0,0,0,-6.616,-6.6161,0,-6.6241,-6.6241,-6.6242,-6.6143,-6.614,-6.6136,-6.6133,-6.621,-6.6215,-6.622,0,0,0,0,0,0,0,0,0,0,0,0,0,-6.5913,-6.5918,-6.616,-6.6161,-6.6162,-6.624,-6.6241,-6.6243,-6.6144,-6.6139,-6.6135,-6.6131,-6.6208,-6.6214,-6.6221,0,0,0,0,0,0,0,0,0,0,0,0,0,-6.601,-6.592,-6.616,-6.6122,-6.612,-6.624,-6.6241,-6.6243,-6.6145,-6.6139,-6.6134,-6.6129,-6.6206,-6.6214,-6.6222,-6.6381,0,0,-6.6247,-6.625,0,0,0,0,0,0,0,0,-6.6004,-6.6019,-6.6127,-6.6125,-6.6122,-6.6176,-6.6183,-6.6289,-6.6146,-6.6135,-6.6132,-6.6126,-6.6203,-6.6211,-6.6238,-6.6385,-6.6388,-6.6248,-6.6252,-6.6256,-6.6258,0,0,0,0,0,0,0,-6.5998,-6.6015,-6.6191,-6.6128,-6.6126,-6.6099,-6.6107,-6.6202,-6.6198,-6.6136,-6.6129,-6.614,-6.62,-6.623,-6.6239,-6.6389,-6.6247,-6.6255,-6.626,-6.6263,-6.6669,-6.6675,0,0,0,0,0,0,-6.5996,-6.601,-6.6189,-6.6194,-6.6049,-6.6108,-6.6117,-6.6164,-6.6197,-6.6197,-6.6144,-6.6135,-6.6219,-6.6229,-6.6241,-6.6429,-6.6256,-6.6264,-6.6268,-6.6663,-6.667,-6.6677,0,0,0,0,0,0,-6.5991,-6.6013,-6.6186,-6.61,-6.612,-6.6118,-6.6173,-6.6169,-6.6198,-6.6204,-6.6202,-6.6176,-6.6215,-6.623,-6.6347,-6.643,-6.6267,-6.6275,-6.6656,-6.6665,-6.6674,-6.6807,0,0,0,0,0,0,-6.5985,-6.6012,-6.6075,-6.6102,-6.6125,-6.6293,-6.6178,-6.6174,-6.6214,-6.6202,-6.6233,-6.6233,-6.6212,-6.6335,-6.6355,-6.6439,-6.6281,-6.6649,-6.666,-6.6671,-6.6795,-6.6819,-6.684,0,0,0,0,0,-6.5976,-6.6108,-6.6078,-6.61,-6.6203,-6.6298,-6.631,-6.6285,-6.6221,-6.6282,-6.6285,-6.6232,-6.6418,-6.6348,-6.637,-6.6457,-6.6643,-6.6657,-6.667,-6.6785,-6.6814,-6.6839,0,0,0,0,0,0,-6.6088,-6.6111,-6.6078,-6.6223,-6.626,-6.6281,-6.6358,-6.6318,-6.6372,-6.6358,-6.6323,-6.6331,-6.6456,-6.6468,-6.639,-6.6612,-6.652,-6.6538,-6.66,-6.6628,-6.665,-6.6644,-6.6288,0,0,0,0,0,-6.613,-6.6207,-6.6222,-6.6348,-6.6368,-6.636,-6.64,-6.6378,-6.6413,-6.6428,-6.6439,-6.6474,-6.654,-6.6584,-6.6646,-6.6796,-6.68,-6.6866,-6.6888,-6.6907,-6.6923,-6.7001,-6.703,-6.672,-6.672,-6.672,0,0,-6.6217,-6.6238,-6.6289,-6.6371,-6.6397,-6.6475,-6.6374,-6.6461,-6.6518,-6.644,-6.6552,-6.6562,-6.6598,-6.6733,-6.6792,-6.6746,-6.7009,-6.6924,-6.6938,-6.6944,-6.7018,-6.7047,-6.7074,-6.6729,-6.6728,-6.6726,0,0,-6.6415,-6.644,-6.6547,-6.6575,-6.6616,-6.6609,-6.6635,-6.6663,-6.6667,-6.6779,-6.6722,-6.6788,-6.6903,-6.6931,-6.696,-6.7167,-6.7119,-6.7188,-6.7305,-6.7382,-6.7406,-6.7428,-6.7501,-6.7527,-6.7204,-6.7204,-6.7204,0,-6.6517,-6.6635,-6.6607,-6.6699,-6.6736,-6.667,-6.6777,-6.6805,-6.6863,-6.6888,-6.6836,-6.6979,-6.6999,-6.7138,-6.7188,-6.7215,-6.7241,-6.7184,-6.7405,-6.7427,-6.7446,-6.7515,-6.7543,-6.7212,-6.7211,-6.721,-6.7209,0,-6.6758,-6.684,-6.6922,-6.6981,-6.7027,-6.7126,-6.7111,-6.716,-6.7133,-6.7132,-6.7245,-6.7267,-6.7331,-6.7362,-6.7336,-6.7497,-6.7467,-6.7411,-6.7318,-6.7484,-6.7548,-6.7575,-6.7223,-6.7221,-6.7218,-6.7216,0,0,-6.7029,-6.7072,-6.7102,-6.7127,-6.7167,-6.7229,-6.7323,-6.7388,-6.743,-6.7471,-6.7549,-6.7647,-6.7595,-6.7628,-6.7604,-6.7672,-6.7834,-6.7607,-6.7607,-6.7648,-6.8011,-6.8053,-6.8084,-6.7802,-6.7807,-6.7811,-6.8008,0,-6.7227,-6.7394,-6.7371,-6.753,-6.7605,-6.7543,-6.7625,-6.7657,-6.7658,-6.7719,-6.7718,-6.7789,-6.7715,-6.7735,-6.7799,-6.7801,-6.7906,-6.7786,-6.7872,-6.7876,-6.7865,-6.8118,-6.8163,-6.8348,-6.8033,-6.8037,-6.804,0,-6.7481,-6.7533,-6.7701,-6.7727,-6.7757,-6.7832,-6.7888,-6.7949,-6.7982,-6.7978,-6.8015,-6.7978,-6.8071,-6.7976,-6.8102,-6.8021,-6.8054,-6.806,-6.8066,-6.8073,-6.7968,-6.8131,-6.8406,-6.8434,-6.808,-6.8076,-6.8074,0,-6.7661,-6.7773,-6.7887,-6.7911,-6.7945,-6.7999,-6.8015,-6.8044,-6.8083,-6.8131,-6.8156,-6.8214,-6.8245,-6.829,-6.8269,-6.8202,-6.8398,-6.8302,-6.8395,-6.8396,-6.8439,-6.8437,-6.8723,-6.8462,-6.8461,-6.8461,-6.846,0,-6.7884,-6.7989,-6.7969,-6.8039,-6.8154,-6.8125,-6.8238,-6.8247,-6.8272,-6.8341,-6.829,-6.8356,-6.8324,-6.8387,-6.8371,-6.8477,-6.8491,-6.8489,-6.8483,-6.8493,-6.8494,-6.8515,-6.8501,-6.8468,-6.8467,-6.8465,-6.8464,0,-6.8105,-6.8097,-6.8217,-6.8239,-6.8247,-6.8331,-6.8349,-6.8413,-6.8409,-6.8497,-6.8516,-6.851,-6.8581,-6.8565,-6.8642,-6.8631,-6.8764,-6.8742,-6.8753,-6.8748,-6.8842,-6.8833,-6.9151,-6.9191,-6.8905,-6.8907,-6.891,0,-6.8248,-6.8328,-6.8359,-6.8403,-6.8423,-6.8494,-6.8534,-6.8508,-6.8552,-6.8595,-6.8654,-6.8721,-6.8773,-6.8888,-6.8889,-6.8948,-6.8927,-6.9034,-6.8935,-6.8942,-6.8927,-6.8923,-6.893,-6.9054,-6.9057,-6.906,-6.9062,0,-6.8503,-6.8494,-6.8556,-6.8616,-6.8666,-6.8711,-6.8751,-6.8789,-6.8765,-6.8817,-6.8889,-6.893,-6.9009,-6.9075,-6.9128,-6.9142,-6.9098,-6.9093,-6.9118,-6.9129,-6.9132,-6.9131,-6.8806,-6.9086,-6.9083,-6.9082,-6.908,-6.9079,-6.8689,-6.8756,-6.8789,-6.8858,-6.8886,-6.8924,-6.8986,-6.899,-6.9051,-6.9115,-6.9095,-6.9177,-6.9206,-6.9274,-6.9294,-6.9357,-6.9316,-6.9352,-6.9361,-6.937,-6.9381,-6.9122,-6.9366,-6.9366,-6.9365,-6.9364,-6.9364,0,-6.894,-6.8958,-6.9022,-6.9081,-6.9135,-6.909,-6.9132,-6.9179,-6.9253,-6.9285,-6.9338,-6.942,-6.9484,-6.949,-6.9549,-6.9598,-6.9579,-6.9614,-6.961,-6.9614,-6.9415,-6.9388,-6.9628,-6.9628,-6.9628,-6.9628,-6.9628,-6.9628,-6.9077,-6.9188,-6.9184,-6.9307,-6.9323,-6.9405,-6.9432,-6.9467,-6.9492,-6.9587,-6.9641,-6.9644,-6.9665,-6.9725,-6.9781,-6.9781,-6.9804,-6.9848,-6.984,-6.9654,-6.9628,-6.9603,-6.9577,-6.9853,-6.9853,-7.0033,-7.0035,-7.0036]}]]